Location: Newark
(34.9500°N, 139.9667°E)
Time: 16:01:45
(UTC+00:00)

Vanguard 2 Rocket - Pass Details

Date: 10 December 2019
Orbit: 554 x 3326 km, 32.9° (Epoch: 18 January)

Event Time Altitude Azimuth Distance (km) Brightness Sun altitude
Rises 07:19:22 0° 229° (SW) 7,126 13.6 0.8°
Reaches altitude 10° 07:24:47 10° 225° (SW) 5,867 12.7 -0.1°
Maximum altitude 07:40:31 48° 158° (SSE) 2,654 9.3 -3.0°
Drops below altitude 10° 07:50:02 10° 87° (E) 3,654 9.4 -4.8°
Enters shadow 07:51:39 - 83° (E) 4,075 9.6 -5.1°
Sets 07:52:34 0° 82° (E) 4,334 - -5.2°
